Telluride, CO

9:27 PM MDT on August 30, 2015 (GMT -0600)
Upper Benchmark | | Change Station
CLOSE
Current Station
Personal Weather Station
Location: Mountain Village, CO
Elevation: 10118 ft
Nearby Weather Stations

Elev 10118 ft 37.92 °N, 107.86 °W | Updated 17 seconds ago

Overcast
Overcast
49.1 °F
Feels Like 49 °F
N
0.0
Wind Variable Wind from ENE
Gusts 0.0 mph

Today
High -- | Low -- °F
--% Chance of Precip.
Yesterday
High -- | Low -- °F
Precip. -- in
6:39 AM 7:43 PM
Full, 97% visible
Pressure 30.41 in
Visibility 10.0 miles
Clouds Overcast 10000 ft
Windchill 49 °F
Dew Point 47 °F
Humidity 91%
Rainfall 0.11 in
Snow Depth Not available.
UV 0.0 out of 12
Pollen 9.90 out of 12
Air Quality Not available.
Flu Activity Not available.
METAR KTEX 310315Z AUTO 11003KT 10SM OVC100 16/06 A3041 RMK AO2 LTG DSNT NW T01630055
Pressure 30.41 in
Visibility 10.0 miles
Clouds Overcast 10000 ft
Windchill 49 °F
Dew Point 47 °F
Humidity 91%
Rainfall 0.11 in
Snow Depth Not available.
UV 0.0 out of 12
Pollen 9.90 out of 12
Air Quality Not available.
Flu Activity Not available.
METAR KTEX 310315Z AUTO 11003KT 10SM OVC100 16/06 A3041 RMK AO2 LTG DSNT NW T01630055

10-Day Weather Forecast

×

Almanac

Astronomy

Aug. 30, 2015 Rise Set
Actual Time
Civil Twilight
Nautical Twilight
Astronomical Twilight
Moon
Length of Visible Light
Length of Day
Tomorrow will be .
, % of the Moon is Illuminated

Today's Extremes

State Highs State Lows

Community

WunderPhotos

Upload Photos

1,851,167 photos uploaded!

WunderBlogs® & News

Nearby

Air Quality

  Air Quality AQ Index Pollutant
Not available.

Snow Depth

Station Depth Elevation

Earthquake Activity

City Distance Mag. Time & Date
Minimum magnitude displayed is 2.5.

Coastal Water Temperatures

Place Temperature

Stations

Nearby Weather Stations

Station Location Temp. Windchill Dew Point Humidity Wind Precip. Elev Updated Type